User: anonymous   Login
Location: Unspecified
(39.1833°N, 0.0000°E)
Time: 11:39:16
(UTC+00:00)
Language:

EO-88 - Orbit

View from above orbital plane
View from above orbital plane
View from above satellite
View from above satellite

Ground track
Ground track

The orbit data is extracted from the following two-line orbital elements,

1 42017U 17008BX  20022.23455919  .00001095  00000-0  45263-4 0  9993
2 42017  97.3793  91.8426 0007719 116.3779 243.8252 15.26075776163093
Epoch (UTC): 22 January 2020 05:37:45
Eccentricity: 0.0007719
inclination: 97.3793°
perigee height: 482 km
apogee height: 493 km
right ascension of ascending node: 91.8426°
argument of perigee: 116.3779°
revolutions per day: 15.26075776
mean anomaly at epoch: 243.8252°
orbit number at epoch: 16309

The dashed part of the orbit path shows where the satellite is in the earth's shadow,  

DLR